Custer, SD

5:23 PM MDT on August 25, 2016 (GMT -0600)
Custer County

Weather History for KCUT - November, 2011

Change the Weather History Date:

Sunday, November 6, 2011

  Actual Average Record
Temperature  
Mean Temperature 24 °F 36 °F  
Max Temperature 34 °F 47 °F 76 °F (1975)
Min Temperature 13 °F 25 °F -10 °F (1959)
Degree Days  
Heating Degree Days 41 29  
Month to date heating degree days 189 169  
Since 1 July heating degree days 1154 1348  
Cooling Degree Days 0 0  
Month to date cooling degree days 0 0  
Year to date cooling degree days 267 177  
Moisture  
Dew Point 16 °F    
Average Humidity 67    
Maximum Humidity 92    
Minimum Humidity 41    
Precipitation  
Precipitation 0.01 in 0.02 in 0.33 in (1953)
Month to date precipitation 0.21 0.14  
Year to date precipitation 20.23 18.10  
Sea Level Pressure  
Sea Level Pressure 29.75 in    
Wind  
Wind Speed 8 mph (West)    
Max Wind Speed 25 mph    
Max Gust Speed 37 mph    
Visibility 9 miles    
Events Snow    
T = Trace of Precipitation, MM = Missing Value Source: NWS Daily Summary

Daily Weather History Graph

Daily Weather History Graph

Search for Another Location

Airport or City:

Trip Planner

Search our weather history database for the weather conditions in past years. The results will help you decide how hot, cold, wet, or windy it might be!

Date:

Astronomy

Nov. 06, 2011 Rise Set
Actual Time 6:36 AM MST 4:38 PM MST
Civil Twilight 6:06 AM MST 5:09 PM MST
Nautical Twilight 5:32 AM MST 5:43 PM MST
Astronomical Twilight 4:58 AM MST 6:16 PM MST
Moon 2:29 PM MST (11/6) 2:39 AM MST (11/6)
Length of Visible Light 11h 02m
Length of Day
10h 02m
Waxing Gibbous, 86% of the Moon is Illuminated
Nov 6
Waxing Gibbous
Nov 10
Full
Nov 18
Last Quarter
Nov 24
New
Dec 2
First Quarter

Hourly Weather History & Observations

Time (MST) Temp. Windchill Dew Point Humidity Pressure Visibility Wind Dir Wind Speed Gust Speed Precip Events Conditions
12:53 AM 24.1 °F 13.1 °F 19.0 °F 81% 29.47 in 10.0 mi WNW 11.5 mph 27.6 mph N/A   Overcast
1:23 AM 24.8 °F 10.7 °F 17.6 °F 74% 29.49 in 10.0 mi WNW 19.6 mph 29.9 mph N/A   Mostly Cloudy
1:41 AM 23.0 °F 10.1 °F 17.6 °F 80% 29.50 in 10.0 mi WNW 15.0 mph 23.0 mph N/A   Partly Cloudy
1:53 AM 23.0 °F 11.1 °F 17.1 °F 78% 29.52 in 10.0 mi WNW 12.7 mph 24.2 mph N/A   Scattered Clouds
1:10 AM 23.0 °F 11.7 °F 15.8 °F 74% 29.52 in 10.0 mi WNW 11.5 mph 29.9 mph N/A   Mostly Cloudy
1:53 AM 23.0 °F 13.1 °F 17.1 °F 78% 29.56 in 10.0 mi West 9.2 mph 25.3 mph N/A   Overcast
2:19 AM 23.0 °F 6.6 °F 17.6 °F 80% 29.53 in 10.0 mi WNW 25.3 mph 33.4 mph N/A   Scattered Clouds
2:53 AM 23.0 °F 8.3 °F 16.0 °F 74% 29.58 in 10.0 mi West 19.6 mph 34.5 mph N/A   Clear
3:35 AM 23.0 °F 9.2 °F 15.8 °F 74% 29.57 in 10.0 mi WNW 17.3 mph 25.3 mph N/A   Mostly Cloudy
3:53 AM 23.0 °F 8.3 °F 16.0 °F 74% 29.61 in 10.0 mi WNW 19.6 mph 32.2 mph N/A   Mostly Cloudy
4:09 AM 23.0 °F 9.6 °F 15.8 °F 74% 29.59 in 10.0 mi NW 16.1 mph 28.8 mph N/A   Scattered Clouds
4:53 AM 23.0 °F 10.6 °F 14.0 °F 68% 29.67 in 10.0 mi WNW 13.8 mph 20.7 mph N/A   Clear
5:53 AM 21.0 °F 12.4 °F 14.0 °F 74% 29.71 in 10.0 mi WSW 6.9 mph - N/A   Clear
6:53 AM 19.9 °F 10.1 °F 16.0 °F 85% 29.75 in 10.0 mi WSW 8.1 mph - N/A   Partly Cloudy
7:10 AM 19.4 °F 8.6 °F 15.8 °F 86% 29.69 in 10.0 mi WSW 9.2 mph - N/A   Mostly Cloudy
7:53 AM 21.9 °F 13.4 °F 17.1 °F 82% 29.79 in 9.0 mi WSW 6.9 mph - 0.00 in Snow Light Snow
8:37 AM 21.2 °F 12.6 °F 19.4 °F 93% 29.71 in 3.0 mi WSW 6.9 mph - 0.00 in Snow Light Snow
8:46 AM 21.2 °F 10.9 °F 19.4 °F 93% 29.71 in 2.5 mi WSW 9.2 mph - 0.00 in Snow Light Snow
8:53 AM 21.9 °F 11.7 °F 19.0 °F 89% 29.82 in 2.5 mi WSW 9.2 mph 17.3 mph 0.00 in Snow Light Snow
9:08 AM 23.0 °F 13.1 °F 19.4 °F 86% 29.72 in 4.0 mi West 9.2 mph - 0.00 in Snow Light Snow
9:19 AM 23.0 °F 12.4 °F 19.4 °F 86% 29.72 in 3.0 mi West 10.4 mph 18.4 mph 0.00 in Snow Light Snow
9:53 AM 26.1 °F 17.6 °F 19.9 °F 78% 29.83 in 9.0 mi West 8.1 mph - 0.01 in Snow Light Snow
10:00 AM 26.6 °F 16.2 °F 19.4 °F 74% 29.73 in 9.0 mi West 11.5 mph 17.3 mph 0.00 in   Overcast
10:53 AM 26.1 °F 15.6 °F 19.0 °F 75% 29.84 in 9.0 mi West 11.5 mph 18.4 mph 0.00 in   Overcast
11:53 AM 27.0 °F 18.0 °F 19.0 °F 72% 29.84 in 10.0 mi West 9.2 mph 16.1 mph 0.00 in Snow Light Snow
12:42 PM 28.4 °F 16.6 °F 15.8 °F 59% 29.74 in 10.0 mi West 16.1 mph 21.9 mph 0.00 in   Mostly Cloudy
12:53 PM 28.9 °F 18.6 °F 14.0 °F 54% 29.84 in 10.0 mi WSW 12.7 mph 20.7 mph 0.00 in   Mostly Cloudy
1:53 PM 34.0 °F 25.5 °F 15.1 °F 46% 29.82 in 10.0 mi WSW 11.5 mph 20.7 mph N/A   Mostly Cloudy
2:53 PM 33.1 °F 23.9 °F 12.0 °F 42% 29.86 in 10.0 mi West 12.7 mph 25.3 mph N/A   Clear
3:53 PM 30.9 °F 23.5 °F 12.0 °F 46% 29.88 in 10.0 mi West 8.1 mph 21.9 mph N/A   Clear
4:53 PM 28.0 °F 22.8 °F 12.0 °F 51% 29.92 in 10.0 mi West 4.6 mph - N/A   Partly Cloudy
5:53 PM 24.1 °F 19.7 °F 12.0 °F 60% 29.98 in 10.0 mi WSW 3.5 mph - N/A   Clear
6:53 PM 23.0 °F 18.4 °F 12.0 °F 63% 30.02 in 10.0 mi WSW 3.5 mph - N/A   Clear
7:53 PM 21.0 °F - 12.0 °F 68% 30.05 in 10.0 mi Calm Calm - N/A   Clear
8:53 PM 19.9 °F 14.9 °F 12.0 °F 71% 30.08 in 10.0 mi NNW 3.5 mph - N/A   Clear
9:53 PM 19.9 °F 14.9 °F 12.0 °F 71% 30.09 in 10.0 mi West 3.5 mph - N/A   Clear
10:53 PM 18.0 °F - 12.0 °F 78% 30.11 in 10.0 mi Calm Calm - N/A   Clear